Location: Boissi�res
(45.2500°N, 2.3667°E)
Time: 08:12:09
(UTC+00:00)

MetOp-A - Pass Details

Date: 03 March 2021
Orbit: 819 x 821 km, 98.5° (Epoch: 18 April)

Event Time Altitude Azimuth Distance (km) Brightness Sun altitude
Exits shadow 19:27:04 - 164° (SSE) 2,566 6.5 -19.5°
Reaches altitude 10° 19:27:28 10° 164° (SSE) 2,412 6.3 -19.5°
Maximum altitude 19:32:49 88° 73° (ENE) 829 4.1 -20.5°
Drops below altitude 10° 19:38:13 10° 347° (NNW) 2,429 6.9 -21.4°
Sets 19:40:34 0° 347° (NNW) 3,366 7.7 -21.8°
